Volver al catálogo

MENUT

ActivoCienciaSSO
NORAD 55010·PAYLOAD·🇪🇸 Spain

Lanzado Jan 3, 2023 desde Cape Canaveral Space Force Station

Loading…

Próximos Pases (próximas 24 horas)

TLE

ActualizadoSource: Space-Track

Época: Sep 14, 2026, 15:42 UTC

1 55010U 23001B   26257.65457189  .00133220  00000-0  82285-3 0  9993
2 55010  97.2989 329.2249 0003370 162.6043 197.5339 15.76732299206414

Sigue MENUT en tiempo real con AllMySat

Download on the App Store